Tracking 32577 objects as of 15-Dec-2025
HD Live streaming from Space Station
objects crossing your sky now

BREEZE-M R/B

Track BREEZE-M R/B now!


NORAD ID: 28360
Int'l Code: 2004-022C
Perigee: 4,257.7 km
Apogee: 35,956.4 km
Inclination: 23.4 °
Period: 714.6 minutes
Semi major axis: 26478 km
RCS: 6.6176 m2 (large)
Launch date: June 16, 2004
Source: Commonwealth of Independent States (former USSR) (CIS)
Launch site: TYURATAM MISSILE AND SPACE COMPLEX (TTMTR)

Note: This is a ROCKET BODY
Your satellite tracking list
Your tracking list is empty




NASA's NSSDC Master Catalog

Two Line Element Set (TLE):
1 28360U 04022C   25348.47174623  .00000047  00000-0  00000-0 0  9994
2 28360  23.4069 119.4377 5985838 284.4380  19.3508  2.01499666157633
Source of the keplerian elements: AFSPC